RH
58 56 53 61 65 62 62 62 61 60 60 61 65 64 63 62 64 78 91 90 93 96 85 72 67 84 86 89 90 78 80 72 87 99 95 87 95 77 76 63 79 68 89 97 93 98 88 55 49 52 42 45 45 48
55 61 59 53 55 59 59 59 59 60 61 60 59 60 60 63 63 73 96 88 94 99 96 76 70 60 59 60 72 84 71 77 87 94 95 97 94 94 81 78 65 76 56 80 82 76 54 55 48 41 44 43 45 49
59 61 64 64 61 59 58 58 59 61 62 63 60 54 57 60 59 74 96 94 94 99 96 96 86 71 66 60 56 84 75 67 79 82 93 88 93 98 91 82 78 72 62 60 61 50 50 45 44 51 43 43 44 43
62 62 64 63 61 60 60 60 60 60 60 61 64 60 54 53 54 55 93 94 97 99 98 82 59 75 66 68 70 65 67 67 73 85 92 96 92 89 87 97 90 68 71 70 63 52 50 42 47 42 46 44 46 43
63 63 61 59 57 56 59 62 62 60 62 63 61 66 68 60 59 76 94 94 90 91 96 79 70 58 55 64 76 71 74 79 88 96 97 91 82 80 75 81 77 82 79 75 68 51 49 41 42 48 47 47 43 47
62 62 59 56 56 56 58 59 61 61 62 62 64 63 66 63 60 90 95 89 90 93 93 96 82 82 72 72 70 68 76 82 86 94 95 87 76 92 98 84 55 51 49 47 53 45 40 42 48 52 48 49 48 50
62 61 60 60 59 58 59 59 62 64 63 63 63 63 64 67 90 94 90 80 88 94 99 97 94 71 84 87 95 92 78 81 84 90 93 82 83 85 99 93 61 54 50 50 50 46 51 54 49 51 52 51 54 57
60 59 61 59 55 56 58 60 62 61 62 61 63 63 65 64 73 92 78 69 72 98 98 99 94 92 89 98 95 97 99 98 98 90 94 92 84 97 97 71 56 50 48 64 50 41 49 61 60 61 58 55 54 55
57 63 60 61 58 61 67 68 71 68 70 69 68 68 86 91 98 93 65 67 88 90 98 96 95 84 91 90 97 99 100 99 99 98 98 98 97 97 84 81 75 66 61 52 55 55 69 64 62 60 61 60 59 56
58 58 56 60 66 67 66 60 63 65 66 67 89 97 98 94 73 73 84 98 99 99 99 92 85 76 96 89 97 99 99 98 99 95 96 99 88 64 58 70 60 58 57 60 68 76 76 73 68 64 63 60 59 58
56 57 56 64 65 62 58 59 61 66 68 96 99 99 87 73 92 98 96 100 96 97 87 86 74 77 71 80 75 83 97 98 98 97 98 98 95 63 53 58 53 59 57 61 64 68 66 66 67 68 69 69 71 71
55 56 58 64 64 58 58 60 64 84 94 89 89 84 92 93 97 99 100 93 96 92 94 98 83 76 79 79 83 95 97 98 97 99 99 98 85 73 66 61 61 69 73 70 73 69 70 69 71 74 76 78 77 78
57 59 61 65 61 57 58 62 66 69 86 98 97 93 94 93 96 95 100 94 99 98 99 99 98 99 99 99 98 98 99 97 96 99 95 89 82 87 89 87 87 84 78 78 79 78 76 78 78 81 79 80 82 85
57 64 66 66 63 58 63 67 67 80 98 98 97 96 93 99 96 93 95 98 88 97 94 95 98 99 99 99 99 98 95 94 100 100 94 96 92 90 88 88 87 89 86 88 85 82 81 88 84 85 83 82 79 76
59 60 62 68 66 62 67 70 81 98 99 98 96 96 99 90 97 97 97 98 94 94 97 95 94 98 99 99 98 97 97 98 94 88 95 97 92 90 90 90 92 91 91 89 88 91 95 93 92 89 88 87 86 88
59 62 71 64 64 65 70 83 90 96 98 98 97 98 91 99 95 97 96 96 95 95 95 97 97 99 98 99 98 94 94 94 90 98 98 92 91 90 87 89 91 89 87 87 85 83 84 87 88 91 92 92 90 87
63 98 71 80 73 71 76 90 90 96 96 99 100 97 97 99 96 96 98 95 98 97 97 98 98 96 99 99 99 90 93 97 99 99 96 92 91 91 92 88 89 90 92 92 90 88 89 89 90 88 91 92 87 86
95 98 86 80 82 97 100 99 97 96 100 97 96 95 99 98 99 98 97 99 98 98 98 97 98 97 97 97 97 97 98 98 98 98 98 96 94 95 89 94 91 90 91 94 94 94 91 89 87 88 90 86 80 80
98 96 76 78 82 92 99 98 98 99 93 97 97 98 98 96 96 97 99 97 97 97 98 98 97 97 95 97 96 98 98 99 97 97 97 98 94 91 96 93 93 94 94 95 90 91 92 92 90 87 84 75 75 76
93 76 68 72 70 93 88 96 97 98 94 95 98 99 98 98 98 99 99 98 97 98 98 98 95 94 95 93 97 98 98 97 96 96 96 97 97 95 93 90 92 93 91 88 84 81 84 88 86 80 76 74 75 77
80 83 75 80 94 94 94 99 99 97 98 97 97 98 98 98 98 98 98 97 98 98 98 97 94 94 96 97 98 98 97 96 97 96 96 96 97 97 97 96 94 88 85 85 88 90 90 90 79 75 76 78 78 77
96 71 90 86 96 93 96 97 98 98 100 97 98 98 98 98 98 98 98 97 98 97 97 95 95 95 95 96 97 98 98 97 97 96 96 95 96 97 96 97 96 97 96 97 95 92 90 86 82 79 79 80 78 78
76 79 92 90 81 88 87 95 100 97 98 96 98 97 97 97 97 98 97 97 97 96 95 96 97 97 97 97 97 96 97 96 95 96 95 95 95 96 96 95 96 94 91 89 82 84 86 80 77 74 71 72 74 80
70 87 84 82 93 82 94 96 98 99 97 97 98 96 96 98 96 97 97 97 95 94 94 95 96 96 96 95 95 95 96 96 95 95 94 91 93 94 91 91 88 88 87 86 86 85 78 71 69 67 73 80 81 81
75 72 85 96 100 91 100 99 99 95 98 97 97 97 97 98 98 97 97 96 95 94 94 94 95 95 95 95 95 95 96 96 94 93 95 92 90 89 92 91 93 94 92 84 81 77 77 72 72 75 79 83 90 94
82 96 87 100 100 95 99 100 100 97 97 96 96 96 97 97 95 98 98 96 95 95 94 94 94 95 94 94 94 94 95 96 90 91 93 93 94 93 95 91 92 93 88 80 75 81 83 83 86 90 91 87 88 98
99 99 98 87 93 93 96 92 89 94 98 98 96 96 96 97 99 98 95 95 94 95 94 94 95 95 95 95 94 94 94 95 95 94 91 92 93 93 94 89 91 92 82 80 74 72 78 83 86 88 94 96 97 96
99 99 98 98 99 98 99 100 100 100 98 95 94 97 97 96 97 95 96 95 95 95 96 96 96 96 96 96 96 95 95 96 96 93 84 83 89 93 89 83 80 72 81 80 80 83 82 86 89 92 94 97 100 98
100 95 96 100 100 100 100 100 99 94 89 97 98 97 97 92 95 94 92 94 95 96 96 96 96 97 97 96 96 96 96 96 94 92 91 91 87 92 95 91 87 86 83 80 76 87 91 90 92 93 96 97 100 100
99 98 98 100 100 100 98 98 98 96 94 94 88 95 91 94 95 95 94 95 95 96 96 96 96 96 96 96 96 95 94 94 92 86 83 85 93 97 96 95 95 96 95 90 90 90 87 97 94 98 95 96 97 98
97 98 99 99 100 98 99 96 95 86 96 98 96 96 96 97 96 95 94 94 95 96 94 95 95 96 96 96 97 96 94 91 92 90 89 92 94 94 94 94 94 91 91 90 92 92 91 94 94 94 95 98 99 100
97 100 100 100 100 97 96 99 100 100 98 97 98 98 97 96 99 96 96 97 96 97 94 97 96 95 95 97 96 97 82 92 92 89 90 89 90 91 91 92 92 90 89 90 91 91 89 91 95 96 98 100 100 100
100 100 100 100 100 99 98 98 100 99 98 100 99 100 100 99 97 97 97 99 99 98 98 97 96 96 97 99 97 94 84 90 80 74 77 78 80 86 92 94 92 90 87 90 92 91 91 93 97 100 100 100 100 100
Wind_Speed
8 8 7 6 9 10 9 9 9 8 8 7 9 9 9 8 8 1 3 4 4 2 5 7 4 5 3 3 3 3 5 3 2 2 4 5 6 8 8 8 7 10 6 5 5 6 13 3 5 8 5 5 4 2
9 11 10 8 11 12 11 11 10 10 11 10 10 10 9 9 8 2 1 2 3 3 4 5 8 15 13 15 5 5 7 6 3 5 2 4 4 3 6 7 7 8 13 7 10 8 5 5 6 6 3 5 4 2
10 9 10 10 12 13 12 12 12 13 12 12 13 12 10 10 9 4 3 2 1 2 4 1 11 9 9 17 13 8 7 8 6 2 1 4 8 3 6 9 4 4 4 8 10 12 20 18 15 8 8 7 4 4
9 9 10 11 12 13 13 14 15 14 14 13 14 15 13 11 10 6 3 3 2 3 4 7 4 5 8 12 16 20 22 5 3 3 5 6 6 6 4 3 3 5 4 6 12 13 14 18 9 12 10 7 5 3
10 9 10 12 13 12 13 13 15 15 15 15 14 15 13 11 11 4 2 4 5 5 3 6 7 14 15 8 12 15 16 14 8 6 7 11 6 8 11 7 16 7 8 6 10 14 8 14 8 3 6 5 4 2
10 11 12 12 12 12 12 13 14 14 14 14 15 15 15 13 9 3 4 2 5 5 5 4 5 5 7 7 11 16 15 11 12 6 5 7 7 5 6 12 31 16 17 18 20 14 18 13 8 3 5 4 2 3
11 11 11 11 14 11 13 12 13 14 14 14 14 15 16 16 3 4 6 4 7 4 4 5 5 5 4 6 4 4 8 8 10 8 11 12 7 11 6 16 5 10 9 11 13 9 7 7 7 8 5 4 2 1
11 10 10 12 11 11 11 12 14 15 15 15 14 13 14 14 10 6 8 15 12 1 2 4 6 4 6 4 3 3 4 7 8 7 5 11 7 7 12 13 16 20 15 15 10 13 6 1 5 5 4 4 4 4
11 10 9 10 11 13 11 9 12 13 15 15 17 16 4 2 3 5 9 15 3 5 4 5 4 6 2 3 4 2 3 3 4 7 6 9 7 10 9 9 10 13 15 15 6 6 6 5 7 6 5 5 4 4
4 6 8 9 10 11 12 10 12 13 14 8 3 2 2 4 5 3 3 1 4 5 5 7 4 10 4 0 3 3 4 5 4 6 5 5 11 14 15 11 9 8 10 7 7 5 6 6 7 6 7 4 3 3
6 8 9 10 11 12 12 13 15 13 2 2 3 4 4 4 3 3 2 2 4 4 6 7 14 15 6 10 8 5 4 4 4 5 6 4 6 16 17 17 14 9 9 11 5 4 8 6 8 7 5 4 4 4
9 11 11 11 13 13 13 14 15 2 3 5 5 1 2 3 3 2 4 5 5 6 4 4 6 8 4 5 7 5 5 5 6 4 3 4 6 5 8 15 10 7 8 7 5 7 6 5 4 4 4 3 4 4
11 13 13 12 13 13 15 16 17 11 9 2 1 3 3 3 3 6 6 6 4 3 5 5 6 3 5 6 5 6 7 5 2 1 5 6 2 3 4 4 6 6 8 7 5 4 5 4 4 3 3 2 2 3
12 12 12 12 14 14 16 14 12 10 3 3 3 5 5 4 6 6 4 3 6 6 10 11 5 4 4 5 4 4 3 1 1 3 7 2 2 4 3 3 4 5 6 7 6 4 5 4 3 3 2 1 2 2
13 15 14 14 15 13 10 7 9 2 1 3 4 6 7 6 3 3 4 3 4 5 6 6 6 5 4 6 4 3 1 5 6 6 2 2 1 3 3 3 6 6 5 5 4 5 4 4 4 4 3 2 4 5
15 17 8 12 11 12 5 5 2 2 1 2 2 3 5 2 5 2 3 3 2 2 5 5 6 6 7 4 4 7 5 6 3 2 1 1 2 3 4 5 5 5 5 5 5 5 5 6 6 5 5 6 6 6
11 4 10 12 14 7 9 2 2 2 3 2 5 3 1 1 5 3 1 2 0 3 3 6 6 6 1 2 3 4 4 2 1 1 1 3 3 4 4 5 6 6 6 6 5 6 5 5 6 8 11 6 8 8
4 3 12 7 5 5 2 1 3 3 4 4 2 4 3 3 2 3 3 1 1 2 2 4 5 5 5 4 3 3 1 1 3 3 3 4 4 5 5 6 7 7 7 6 6 5 6 8 9 7 7 6 8 7
6 6 5 13 6 4 3 1 1 3 6 3 3 2 3 3 3 2 2 3 5 5 3 3 4 3 4 3 6 4 2 2 2 3 5 7 6 8 7 8 8 8 7 5 8 7 7 8 6 5 4 6 7 5
10 5 5 10 5 4 2 3 1 2 3 4 1 2 2 3 2 2 2 2 3 2 1 2 2 3 4 9 8 1 3 3 4 5 5 5 4 7 7 7 7 7 8 8 9 12 8 9 8 7 7 8 8 8
4 4 8 5 3 4 3 1 3 3 3 2 1 1 3 2 1 1 2 3 2 1 2 2 4 7 8 7 3 3 6 5 5 3 3 5 5 5 6 5 6 6 7 7 8 9 10 8 7 7 8 9 9 9
2 8 3 5 4 5 3 2 2 2 0 3 2 1 2 2 2 2 1 3 2 2 2 4 5 5 6 7 5 5 7 10 8 7 10 8 5 5 5 5 6 7 7 6 7 8 7 7 7 8 9 9 10 9
9 4 5 4 4 4 5 3 2 3 0 3 2 2 2 2 2 1 2 2 2 3 6 5 5 5 5 5 7 10 9 9 7 6 6 6 6 6 6 7 5 6 7 6 6 7 8 12 11 9 9 9 8 9
8 6 4 2 3 4 3 3 2 2 3 2 2 3 3 2 3 3 2 2 3 6 6 9 6 4 4 7 7 6 6 5 6 7 6 6 6 6 6 6 6 6 5 5 6 7 7 8 11 8 8 10 9 9
7 4 5 4 3 5 5 5 6 3 2 1 2 2 2 2 2 2 2 3 4 6 7 8 6 6 5 4 5 5 8 5 6 7 6 5 5 5 6 6 6 5 3 7 8 9 8 8 8 9 9 9 10 9
3 3 4 3 3 2 3 1 1 1 2 2 2 2 1 2 4 2 1 3 3 3 5 6 6 4 4 5 3 4 5 4 4 5 5 5 4 3 4 6 5 5 5 4 9 10 9 8 9 10 10 12 15 9
3 3 2 1 1 2 1 2 2 2 2 2 3 3 2 3 1 1 1 2 3 2 4 4 4 3 3 3 3 4 4 5 5 5 3 4 5 4 3 4 6 2 3 6 7 9 11 9 9 9 9 7 6 4
3 2 4 2 3 2 3 1 1 1 1 2 1 3 2 2 1 2 2 3 5 5 4 3 3 3 3 3 3 3 5 4 5 5 7 8 7 7 7 6 6 15 8 7 8 7 8 8 9 7 7 7 4 4
2 1 2 3 3 3 1 2 1 1 3 0 2 1 1 2 2 3 3 5 5 3 3 3 4 3 2 3 4 4 3 3 3 7 10 5 3 5 5 5 6 6 7 10 18 13 11 9 8 7 6 5 3 3
2 1 4 2 3 0 3 1 2 3 2 2 1 2 2 1 2 4 4 4 4 4 3 3 3 3 3 3 3 4 4 3 2 3 5 5 4 2 3 5 5 4 5 8 9 10 15 8 8 5 5 5 4 4
1 2 4 3 2 2 2 2 3 2 2 2 2 3 2 1 1 2 4 4 4 3 4 5 5 5 5 5 3 3 3 4 4 6 8 6 6 5 4 4 4 4 5 6 6 6 7 4 4 6 7 7 7 7
3 2 3 3 1 3 3 3 2 3 4 3 3 2 2 2 3 3 4 4 3 5 7 5 5 4 5 3 3 2 3 3 4 6 8 6 6 5 5 4 4 5 6 6 5 5 7 8 6 6 6 6 4 4
3 3 3 3 3 3 3 3 5 3 4 3 3 2 0 1 1 2 2 1 0 2 4 4 4 4 4 4 3 3 5 3 9 15 17 15 14 11 5 4 4 5 7 7 6 6 8 8 6 5 5 4 4 5
Wind_Direction
266 267 263 269 277 276 275 279 283 285 279 279 283 286 292 301 297 111 230 187 152 227 261 234 197 180 216 207 226 303 354 309 313 167 196 212 223 219 223 206 190 208 197 196 213 232 270 208 76 180 230 298 284 303
265 260 268 265 260 264 271 274 279 280 278 280 279 281 285 286 291 274 227 254 160 219 252 221 219 225 224 230 224 208 236 277 262 245 234 284 255 231 206 247 199 235 219 200 194 215 252 200 245 254 236 248 278 284
281 266 263 265 269 275 276 275 271 271 273 274 272 269 267 276 277 211 196 191 247 233 283 203 247 245 222 234 210 234 241 208 238 161 308 227 257 267 216 235 220 253 197 228 256 258 266 269 265 244 230 236 259 239
271 266 260 264 270 276 277 277 276 272 272 264 269 273 270 269 271 275 174 185 135 277 250 268 285 219 223 219 217 215 234 256 202 165 226 243 242 187 254 290 270 213 133 218 256 258 282 279 258 259 238 211 224 226
263 264 266 270 270 278 285 290 279 276 274 272 266 271 270 268 277 330 208 207 178 198 246 275 297 261 246 223 228 223 221 226 226 220 217 234 232 239 249 277 266 185 209 210 248 243 246 268 258 240 200 215 217 190
260 264 272 276 274 277 275 282 280 276 276 270 267 261 263 259 262 55 327 301 212 165 258 256 255 256 242 221 228 231 221 215 215 225 215 231 229 226 237 231 246 230 238 241 253 265 248 248 237 199 189 194 219 224
256 262 268 269 275 284 284 276 274 275 276 276 267 264 260 256 209 173 199 217 102 118 285 319 287 262 241 238 225 224 210 210 211 221 227 238 231 206 245 243 123 203 219 240 250 241 239 197 218 199 179 179 191 228
258 257 267 270 276 278 286 285 286 284 276 277 269 271 272 264 271 248 242 258 252 193 228 265 264 308 191 233 243 205 226 196 202 215 197 216 216 227 245 252 235 251 251 255 229 217 256 157 138 174 167 150 182 228
255 263 267 272 280 288 280 300 301 285 278 276 276 269 303 171 202 236 243 243 178 165 216 225 204 276 127 238 238 249 240 247 222 212 206 168 204 217 229 206 207 216 213 238 190 189 206 190 185 186 188 198 212 229
247 254 268 282 283 287 290 291 288 300 296 318 72 125 243 224 231 19 322 223 206 198 217 248 182 236 170 147 266 279 217 227 238 214 163 229 243 247 236 226 240 255 215 167 143 200 211 231 205 201 204 183 192 208
274 277 281 279 282 288 294 300 301 308 26 92 166 212 238 294 67 39 274 195 200 240 222 222 221 243 205 234 240 241 265 277 248 190 201 215 247 232 225 225 228 224 200 186 161 181 185 189 179 173 186 205 215 225
275 278 279 274 280 291 292 299 304 310 196 191 171 117 38 56 55 89 238 293 247 236 216 201 237 213 218 191 196 222 220 240 256 146 220 245 248 252 217 214 210 163 153 141 151 145 136 137 147 160 178 209 224 232
292 289 276 275 286 292 293 301 295 284 110 79 87 69 99 286 178 206 239 276 263 282 353 333 292 223 168 185 195 225 229 222 119 205 229 231 14 43 69 90 91 105 120 124 123 127 134 141 141 162 187 216 234 227
287 287 284 282 285 289 298 291 299 109 130 175 146 167 202 241 231 198 198 330 318 288 328 302 289 266 182 194 234 231 226 153 225 260 241 270 307 149 126 100 112 128 129 127 127 127 127 132 131 89 93 220 206 196
290 291 278 276 282 281 284 302 126 68 142 186 144 209 215 226 256 206 209 225 232 288 289 309 263 238 217 239 186 113 183 238 211 235 243 251 143 128 99 91 116 119 121 118 124 116 115 124 118 96 33 71 103 99
289 295 278 269 263 272 192 109 90 101 48 171 181 236 239 33 272 238 228 258 231 278 292 238 250 258 214 216 173 207 155 224 246 247 287 81 55 66 94 97 103 109 111 107 106 119 120 112 108 99 68 57 63 78
296 231 275 286 248 177 142 105 84 63 184 208 248 237 204 274 233 240 167 240 227 316 257 274 251 235 294 192 236 181 209 281 133 113 70 101 112 98 86 84 87 90 90 91 94 87 87 89 83 80 78 44 65 63
230 273 286 234 159 100 41 134 123 124 249 245 188 249 196 205 241 265 247 204 303 229 254 261 307 277 320 326 29 346 346 9 63 75 70 80 78 83 85 92 81 85 88 79 82 83 76 81 86 85 84 81 78 64
187 215 242 146 129 108 110 228 132 235 237 234 253 252 225 249 232 226 233 250 249 228 255 254 283 330 325 337 323 323 5 14 50 49 69 76 83 97 88 84 85 82 77 66 81 79 74 65 74 73 70 77 79 59
175 197 159 152 97 92 37 296 45 163 263 245 285 298 250 243 257 267 270 266 275 282 206 289 299 336 301 299 297 31 79 78 96 92 69 57 62 84 83 94 92 95 91 86 83 85 80 70 55 62 67 68 73 63
87 90 62 57 46 56 131 159 304 216 295 280 310 304 280 311 326 343 324 313 36 30 317 322 296 302 309 307 332 54 65 66 64 56 79 77 52 72 77 70 76 80 85 84 85 79 71 72 73 74 75 71 69 72
104 92 83 22 71 2 62 308 207 297 231 246 320 348 296 329 319 343 317 35 19 323 299 294 306 317 332 357 7 26 74 75 59 60 55 65 64 61 57 55 76 74 66 68 79 86 83 81 84 84 84 84 77 78
100 69 49 45 63 48 255 12 46 331 12 281 334 351 330 333 274 320 68 21 359 334 314 299 326 332 341 7 48 44 45 70 68 58 58 64 59 50 56 46 45 80 86 61 75 88 89 92 89 89 86 81 83 72
50 59 81 88 84 254 358 355 348 349 328 345 338 316 328 288 310 61 73 27 338 336 346 348 359 353 358 27 39 34 29 52 69 56 39 64 69 49 47 52 54 53 57 85 83 82 81 85 91 82 78 78 69 74
83 325 88 330 323 46 25 353 340 36 288 311 317 317 328 342 65 59 59 355 340 358 351 349 8 16 26 33 28 29 20 48 70 71 26 43 77 83 66 61 57 38 13 96 86 88 80 79 78 80 77 83 89 78
101 298 97 176 280 108 192 14 306 285 320 323 334 308 321 63 59 38 19 341 331 353 346 343 338 354 27 21 26 15 1 355 61 69 29 13 20 54 100 105 90 42 14 71 108 98 88 83 85 84 74 74 91 91
106 266 292 13 221 120 23 346 343 86 62 359 338 329 18 65 59 48 33 38 323 335 310 309 330 349 4 14 37 30 22 34 63 87 73 43 33 27 31 97 101 91 61 71 92 107 112 104 97 92 89 68 53 55
164 155 146 261 62 22 133 35 57 27 332 305 355 29 87 19 65 344 345 339 316 307 300 339 3 360 2 19 41 61 59 56 72 92 89 60 44 35 35 69 84 99 89 82 89 86 94 101 105 104 101 95 77 40
67 334 113 40 30 43 112 145 222 348 348 346 115 95 95 50 358 331 323 329 321 344 12 9 12 354 8 32 38 30 25 31 56 97 97 100 79 29 5 54 74 81 87 93 95 97 98 98 95 91 94 100 103 84
295 344 92 78 98 32 252 168 267 290 297 43 76 104 92 81 23 345 345 350 6 9 356 2 359 21 13 7 10 36 30 10 42 104 127 125 117 94 44 70 78 60 69 93 96 94 91 68 84 55 68 67 57 49
2 67 70 62 130 250 251 299 287 272 22 42 355 87 87 131 99 35 12 351 342 359 27 18 19 19 14 10 7 9 31 14 31 82 96 101 100 88 78 71 70 78 80 90 91 96 105 85 85 86 75 67 47 52
22 75 119 95 280 307 8 40 4 51 358 41 10 12 20 58 26 332 355 351 11 26 17 16 8 348 340 323 330 320 92 84 68 96 102 103 98 97 100 93 86 90 93 88 86 92 88 89 82 75 75 63 44 25
45 45 46 73 30 13 345 57 22 11 24 32 9 11 65 30 203 284 308 94 264 320 336 322 313 318 340 1 24 66 93 103 126 115 114 116 120 118 100 82 82 90 97 94 83 91 84 88 78 77 70 52 22 8